Terminal Aerodrome Forecast
Issued by NWS

Home | Current Version | Previous Version | Text Only | Print | Product List | Glossary On
Versions: 1 2 3 4 5 6 7 8 9 10 11 12 13 14 15 16
000
FTUS45 KRIW 261100
TAFCPR
TAF
KCPR 261139Z 2612/2712 06006KT 2SM -SN SCT007 BKN020
     FM261300 05006KT P6SM -SN SCT020 BKN035
     FM261800 02007KT P6SM SCT040 BKN090
     FM270300 VRB05KT P6SM VCSH BKN040
     FM270900 23008KT P6SM FEW050=

USA.gov is the U.S. government's official web portal to all federal, state and local government web resources and services.